GW7024 Weather Reports


Display with metric or nautical units.
time (UTC)temp
F
wind
direction
speed
MPH
gust
MPH
rain 1hr
in
rain 24hr
in
rain mn
in
humidity
%
barometer
mb
20260503003545 63 134 1.0 1.0 0.00 0.00 0.00 42 1010.6
20260503003042 63 65 4.0 6.0 0.00 0.00 0.00 38 1010.7
20260503002539 63 55 2.0 3.0 0.00 0.00 0.00 40 1011.0
20260503002036 63 311 4.0 7.0 0.00 0.00 0.00 36 1010.9
20260503001532 63 149 0.0 1.0 0.00 0.00 0.00 40 1010.6
20260503001030 63 156 0.0 0.0 0.00 0.00 0.00 35 1010.7
20260503000527 63 160 0.0 1.0 0.00 0.00 0.00 41 1010.7
20260503000024 64 139 1.0 1.0 0.00 0.00 0.00 35 1010.6
20260502235520 64 178 1.0 1.0 0.00 0.00 0.00 35 1010.8
20260502235018 64 50 2.0 3.0 0.00 0.00 0.00 41 1011.0
20260502234514 64 110 1.0 1.0 0.00 0.00 0.00 43 1011.0
20260502234012 63 93 2.0 3.0 0.00 0.00 0.00 42 1011.0
20260502233512 63 168 1.0 2.0 0.00 0.00 0.00 37 1011.1
20260502233010 63 117 1.0 2.0 0.00 0.00 0.00 40 1011.2
20260502232506 63 152 0.0 0.0 0.00 0.00 0.00 39 1011.3
20260502232002 63 135 0.0 0.0 0.00 0.00 0.00 43 1011.4
20260502231500 63 25 2.0 3.0 0.00 0.00 0.00 39 1011.5
20260502230958 64 44 3.0 4.0 0.00 0.00 0.00 40 1011.7
20260502230455 64 99 3.0 4.0 0.00 0.00 0.00 37 1011.5
20260502225953 64 64 2.0 2.0 0.00 0.00 0.00 39 1011.5
20260502225449 64 140 1.0 1.0 0.00 0.00 0.00 36 1011.4
20260502224946 64 151 3.0 4.0 0.00 0.00 0.00 34 1011.6
20260502224442 64 224 0.0 1.0 0.00 0.00 0.00 38 1011.6
20260502223939 64 179 1.0 1.0 0.00 0.00 0.00 35 1011.6
20260502223437 64 126 0.0 1.0 0.00 0.00 0.00 36 1011.5
20260502222935 64 165 0.0 0.0 0.00 0.00 0.00 36 1011.8
20260502222433 64 132 2.0 2.0 0.00 0.00 0.00 34 1011.7
20260502221928 64 64 3.0 4.0 0.00 0.00 0.00 36 1011.6
20260502221425 65 146 2.0 2.0 0.00 0.00 0.00 34 1011.7
20260502220922 65 170 1.0 1.0 0.00 0.00 0.00 34 1011.8
20260502220417 64 156 0.0 1.0 0.00 0.00 0.00 39 1012.0
20260502215914 64 142 2.0 2.0 0.00 0.00 0.00 33 1011.9
20260502215412 64 154 2.0 3.0 0.00 0.00 0.00 35 1012.2
20260502214908 64 139 0.0 1.0 0.00 0.00 0.00 32 1012.3
20260502214405 64 149 1.0 1.0 0.00 0.00 0.00 37 1012.4
20260502213902 64 144 1.0 1.0 0.00 0.00 0.00 33 1012.5
20260502213359 64 114 1.0 1.0 0.00 0.00 0.00 38 1012.5
20260502212858 64 166 1.0 2.0 0.00 0.00 0.00 31 1012.6
20260502212356 66 122 2.0 3.0 0.00 0.00 0.00 31 1012.6
20260502211853 67 153 1.0 1.0 0.00 0.00 0.00 35 1012.8
20260502211348 66 12 3.0 3.0 0.00 0.00 0.00 39 1012.8
20260502210846 66 105 2.0 2.0 0.00 0.00 0.00 32 1013.0
20260502210343 68 159 4.0 6.0 0.00 0.00 0.00 33 1012.9
20260502205841 68 147 0.0 0.0 0.00 0.00 0.00 40 1013.1
20260502205336 68 11 3.0 3.0 0.00 0.00 0.00 34 1013.1
20260502204834 67 164 1.0 1.0 0.00 0.00 0.00 33 1013.3
20260502204331 67 307 3.0 4.0 0.00 0.00 0.00 34 1013.6
20260502203828 66 127 2.0 3.0 0.00 0.00 0.00 35 1013.5
20260502203326 65 80 4.0 7.0 0.00 0.00 0.00 36 1013.5
20260502202826 66 90 2.0 2.0 0.00 0.00 0.00 33 1013.7
20260502202324 65 272 1.0 2.0 0.00 0.00 0.00 35 1013.9
20260502201821 64 197 3.0 3.0 0.00 0.00 0.00 32 1013.9
20260502201317 64 248 3.0 6.0 0.00 0.00 0.00 31 1013.9
20260502200814 64 168 1.0 1.0 0.00 0.00 0.00 34 1014.2
20260502200310 63 290 4.0 6.0 0.00 0.00 0.00 34 1014.3
20260502195808 62 3 3.0 6.0 0.00 0.00 0.00 42 1014.5
20260502195305 62 172 1.0 2.0 0.00 0.00 0.00 34 1014.5
20260502194800 62 54 6.0 8.0 0.00 0.00 0.00 35 1014.5
20260502194258 63 65 2.0 4.0 0.00 0.00 0.00 33 1014.7
20260502193754 63 164 1.0 1.0 0.00 0.00 0.00 34 1014.6
20260502193251 62 76 2.0 2.0 0.00 0.00 0.00 38 1014.6
20260502192751 62 58 2.0 2.0 0.00 0.00 0.00 41 1014.8
20260502192249 62 103 0.0 0.0 0.00 0.00 0.00 37 1014.9
20260502191746 62 183 1.0 1.0 0.00 0.00 0.00 34 1015.1
20260502191244 62 52 1.0 1.0 0.00 0.00 0.00 38 1015.0
20260502190741 62 66 2.0 3.0 0.00 0.00 0.00 36 1015.2
20260502190238 62 136 2.0 2.0 0.00 0.00 0.00 33 1015.4
20260502185738 61 160 3.0 3.0 0.00 0.00 0.00 43 1015.4
20260502185235 61 111 2.0 2.0 0.00 0.00 0.00 34 1015.5
20260502184732 62 101 2.0 2.0 0.00 0.00 0.00 36 1015.4
20260502184227 61 174 2.0 2.0 0.00 0.00 0.00 37 1015.7
20260502183724 61 166 1.0 1.0 0.00 0.00 0.00 35 1015.8
20260502183220 61 27 2.0 2.0 0.00 0.00 0.00 34 1015.8
20260502182715 60 39 5.0 7.0 0.00 0.00 0.00 41 1015.7
20260502182211 60 191 6.0 8.0 0.00 0.00 0.00 39 1015.8
20260502181708 60 80 3.0 3.0 0.00 0.00 0.00 36 1015.9
20260502181208 60 125 1.0 2.0 0.00 0.00 0.00 36 1016.1
20260502180704 60 160 2.0 2.0 0.00 0.00 0.00 36 1016.2
20260502180201 60 78 4.0 7.0 0.00 0.00 0.00 41 1016.3
20260502170126 58 24 5.0 7.0 0.00 0.00 0.00 36 1017.2
20260502164112 58 46 2.0 3.0 0.00 0.00 0.00 43 1017.6
20260502163609 57 39 4.0 4.0 0.00 0.00 0.00 45 1017.5
20260502163105 57 110 1.0 1.0 0.00 0.00 0.00 40 1017.8
20260502162602 56 66 2.0 2.0 0.00 0.00 0.00 40 1017.6
20260502162059 57 50 2.0 3.0 0.00 0.00 0.00 40 1017.8
20260502161556 57 105 2.0 4.0 0.00 0.00 0.00 37 1017.8
20260502161053 57 155 1.0 2.0 0.00 0.00 0.00 36 1017.9
20260502160551 56 118 2.0 2.0 0.00 0.00 0.00 43 1017.9
20260502151958 56 43 2.0 2.0 0.00 0.00 0.00 44 1018.4
20260502151455 56 101 1.0 1.0 0.00 0.00 0.00 47 1018.3
20260502150952 55 37 2.0 3.0 0.00 0.00 0.00 47 1018.5
20260502150449 55 63 2.0 2.0 0.00 0.00 0.00 40 1018.3
20260502130335 45 152 0.0 0.0 0.00 0.00 0.00 62 1018.9
20260502123318 41 165 1.0 1.0 0.00 0.00 0.00 74 1018.8
20260502122815 40 124 1.0 2.0 0.00 0.00 0.00 75 1018.8
20260502122310 39 157 0.0 0.0 0.00 0.00 0.00 82 1018.7
20260502121809 38 162 0.0 0.0 0.00 0.00 0.00 87 1018.8
20260502121306 36 183 0.0 0.0 0.00 0.00 0.00 92 1018.6
20260502120803 35 157 0.0 0.0 0.00 0.00 0.00 91 1018.9
20260502120259 35 155 0.0 0.0 0.00 0.00 0.00 91 1018.9
20260502115757 35 156 0.0 0.0 0.00 0.00 0.00 92 1018.8
20260502115254 34 155 0.0 0.0 0.00 0.00 0.00 92 1018.6
20260502114749 33 162 0.0 0.0 0.00 0.00 0.00 93 1018.6
20260502114247 33 158 0.0 0.0 0.00 0.00 0.00 92 1018.8
20260502113744 33 153 0.0 0.0 0.00 0.00 0.00 92 1018.8
20260502113242 32 147 0.0 0.0 0.00 0.00 0.00 92 1018.7
20260502112740 32 157 0.0 0.0 0.00 0.00 0.00 92 1018.6
20260502112237 32 157 0.0 0.0 0.00 0.00 0.00 92 1018.6
20260502111734 32 155 0.0 0.0 0.00 0.00 0.00 92 1018.6
20260502111231 32 151 0.0 0.0 0.00 0.00 0.00 91 1018.6
20260502110729 32 148 0.0 0.0 0.00 0.00 0.00 91 1018.7
20260502110226 32 156 0.0 0.0 0.00 0.00 0.00 92 1018.7
20260502105724 32 151 0.0 0.0 0.00 0.00 0.00 92 1018.8
20260502105220 32 151 0.0 0.0 0.00 0.00 0.00 91 1018.7
20260502104718 32 152 0.0 0.0 0.00 0.00 0.00 91 1018.7
20260502104215 32 156 0.0 0.0 0.00 0.00 0.00 91 1018.6
20260502103713 32 155 0.0 0.0 0.00 0.00 0.00 91 1018.5
20260502103211 33 155 0.0 0.0 0.00 0.00 0.00 91 1018.4
20260502102707 33 155 0.0 0.0 0.00 0.00 0.00 91 1018.7
20260502102204 33 151 0.0 0.0 0.00 0.00 0.00 91 1018.6
20260502101702 33 151 0.0 0.0 0.00 0.00 0.00 91 1018.7
20260502101200 33 151 0.0 0.0 0.00 0.00 0.00 91 1018.7
20260502100658 33 151 0.0 0.0 0.00 0.00 0.00 91 1018.6
20260502100156 34 153 0.0 0.0 0.00 0.00 0.00 91 1018.7
20260502091130 34 156 0.0 0.0 0.00 0.00 0.00 88 1018.5
20260502090627 34 150 0.0 0.0 0.00 0.00 0.00 88 1018.5
20260502090124 35 151 0.0 0.0 0.00 0.00 0.00 88 1018.5
20260502071521 35 157 0.0 0.0 0.00 0.00 0.00 86 1018.7
20260502071020 35 157 0.0 0.0 0.00 0.00 0.00 86 1018.8
20260502070517 35 157 0.0 0.0 0.00 0.00 0.00 86 1018.7
20260502070015 35 157 0.0 0.0 0.00 0.00 0.00 85 1018.8
20260502065514 35 156 0.0 0.0 0.00 0.00 0.00 85 1018.7
20260502065011 35 157 0.0 0.0 0.00 0.00 0.00 83 1018.7
20260502064509 35 157 0.0 0.0 0.00 0.00 0.00 82 1018.9
20260502064006 35 157 0.0 0.0 0.00 0.00 0.00 82 1018.9
20260502063504 35 156 0.0 0.0 0.00 0.00 0.00 83 1018.9
20260502063001 35 156 0.0 0.0 0.00 0.00 0.00 82 1018.8
20260502062458 36 156 0.0 0.0 0.00 0.00 0.00 83 1018.8
20260502061957 36 156 0.0 0.0 0.00 0.00 0.00 83 1018.8
20260502061454 36 157 0.0 0.0 0.00 0.00 0.00 83 1018.9
20260502060950 36 155 0.0 0.0 0.00 0.00 0.00 83 1018.7
20260502060446 36 155 0.0 0.0 0.00 0.00 0.00 83 1018.7
20260502055942 36 155 0.0 0.0 0.00 0.00 0.00 82 1018.9
20260502055440 37 155 0.0 0.0 0.00 0.00 0.00 82 1018.9
20260502054935 37 155 0.0 0.0 0.00 0.00 0.00 81 1018.8
20260502054432 37 153 0.0 0.0 0.00 0.00 0.00 79 1019.0
20260502053929 37 151 0.0 0.0 0.00 0.00 0.00 78 1018.9
20260502053426 37 155 0.0 0.0 0.00 0.00 0.00 74 1018.9
20260502052924 37 155 0.0 0.0 0.00 0.00 0.00 74 1018.9
20260502052422 38 155 0.0 0.0 0.00 0.00 0.00 74 1019.0
20260502051920 38 155 0.0 0.0 0.00 0.00 0.00 74 1018.9
20260502051418 38 156 0.0 0.0 0.00 0.00 0.00 73 1018.9
20260502050914 38 156 0.0 0.0 0.00 0.00 0.00 71 1018.8
20260502050411 39 156 0.0 0.0 0.00 0.00 0.00 70 1018.9
20260502045908 39 156 0.0 0.0 0.00 0.00 0.00 69 1018.7
20260502045405 39 156 0.0 0.0 0.00 0.00 0.00 67 1018.8
20260502044902 40 153 0.0 0.0 0.00 0.00 0.00 65 1018.9
20260502044357 40 160 0.0 0.0 0.00 0.00 0.00 64 1018.8
20260502043855 39 162 0.0 0.0 0.00 0.00 0.00 64 1018.7
20260502043352 39 156 0.0 0.0 0.00 0.00 0.00 66 1018.7
20260502042852 39 147 0.0 0.0 0.00 0.00 0.00 65 1018.7
20260502042349 40 155 0.0 0.0 0.00 0.00 0.00 65 1018.8
20260502041846 40 152 0.0 0.0 0.00 0.00 0.00 64 1018.8
20260502041343 40 150 0.0 0.0 0.00 0.00 0.00 63 1018.7
20260502040841 40 152 0.0 0.0 0.00 0.00 0.00 69 1018.8
20260502040338 41 151 0.0 0.0 0.00 0.00 0.00 67 1018.8
20260502035834 41 155 0.0 0.0 0.00 0.00 0.00 63 1018.7
20260502035331 42 155 0.0 0.0 0.00 0.00 0.00 60 1018.7
20260502034828 42 157 0.0 0.0 0.00 0.00 0.00 59 1018.8
20260502034326 42 157 0.0 0.0 0.00 0.00 0.00 58 1018.9
20260502033824 42 157 0.0 0.0 0.00 0.00 0.00 58 1019.0
20260502033322 43 146 0.0 0.0 0.00 0.00 0.00 60 1018.8
20260502032818 43 159 0.0 0.0 0.00 0.00 0.00 56 1018.8
20260502032314 43 159 0.0 0.0 0.00 0.00 0.00 55 1018.9
20260502031812 43 151 0.0 0.0 0.00 0.00 0.00 56 1018.9
20260502031310 43 160 0.0 0.0 0.00 0.00 0.00 54 1019.0
20260502030808 43 163 0.0 0.0 0.00 0.00 0.00 56 1018.7
20260502030306 43 149 0.0 0.0 0.00 0.00 0.00 58 1018.8
20260502025803 43 130 1.0 1.0 0.00 0.00 0.00 58 1018.9
20260502025301 42 157 0.0 0.0 0.00 0.00 0.00 60 1018.9
20260502024758 42 152 0.0 0.0 0.00 0.00 0.00 62 1018.8
20260502024256 42 154 0.0 0.0 0.00 0.00 0.00 59 1018.8
20260502023754 42 150 0.0 0.0 0.00 0.00 0.00 62 1018.8
20260502023251 43 146 0.0 0.0 0.00 0.00 0.00 62 1018.8
20260502022749 43 145 0.0 0.0 0.00 0.00 0.00 60 1018.8
20260502022245 43 149 0.0 0.0 0.00 0.00 0.00 55 1018.7
20260502021742 44 152 0.0 0.0 0.00 0.00 0.00 54 1018.8
20260502021240 44 150 0.0 0.0 0.00 0.00 0.00 55 1018.7
20260502020737 45 149 0.0 0.0 0.00 0.00 0.00 56 1018.6
20260502020234 45 147 0.0 0.0 0.00 0.00 0.00 55 1018.7
20260502015732 45 161 0.0 0.0 0.00 0.00 0.00 57 1018.6
20260502015227 46 154 0.0 0.0 0.00 0.00 0.00 53 1018.7
20260502014725 46 154 0.0 0.0 0.00 0.00 0.00 48 1018.4
20260502014222 46 159 0.0 0.0 0.00 0.00 0.00 50 1018.4
20260502013718 47 153 0.0 0.0 0.00 0.00 0.00 53 1018.3
20260502013213 47 134 0.0 1.0 0.00 0.00 0.00 56 1018.5
20260502012711 48 152 0.0 0.0 0.00 0.00 0.00 49 1018.5
20260502012209 49 155 0.0 0.0 0.00 0.00 0.00 49 1018.2
20260502011705 50 151 0.0 0.0 0.00 0.00 0.00 46 1018.4
20260502011201 50 158 0.0 0.0 0.00 0.00 0.00 37 1018.3
20260502010659 51 155 0.0 0.0 0.00 0.00 0.00 36 1018.3
20260502010155 51 158 0.0 0.0 0.00 0.00 0.00 34 1018.2
20260502005653 51 160 0.0 0.0 0.00 0.00 0.00 34 1018.4
20260502005150 52 151 0.0 0.0 0.00 0.00 0.00 34 1018.3
20260502004646 52 151 0.0 0.0 0.00 0.00 0.00 34 1018.3
20260502004143 52 153 0.0 0.0 0.00 0.00 0.00 35 1018.2